LAN425 SAZN-SABE

Flight info

Callsign LAN425
Flight time N/A
Altitude 37000
Route NIDBA1G NIDBA DCT ISMIL UT655 ASADA ASADA8Q
Aircraft A320/M-SDE3FGHIRWY/LB1

Departure

Time 2026-05-05 22:23
Airport Presidente Perón International Airport (SAZN)

Arrival

Time N/A
Airport Aeroparque Jorge Newbery (SABE)
Time Latitude Longitude Altitude Speed Heading
2026-05-05 21:55 -38.95141 -68.14007 891 ft 0 kts 288°
2026-05-05 22:16 -38.95140 -68.14010 891 ft 1 kts 288°
2026-05-05 22:16 -38.95134 -68.14032 891 ft 4 kts 289°
2026-05-05 22:16 -38.95123 -68.14073 891 ft 6 kts 289°
2026-05-05 22:17 -38.95108 -68.14131 891 ft 8 kts 289°
2026-05-05 22:17 -38.95093 -68.14205 892 ft 9 kts 275°
2026-05-05 22:17 -38.95093 -68.14294 892 ft 11 kts 269°
2026-05-05 22:17 -38.95093 -68.14399 892 ft 13 kts 270°
2026-05-05 22:18 -38.95092 -68.14518 892 ft 14 kts 270°
2026-05-05 22:18 -38.95091 -68.14654 893 ft 16 kts 270°
2026-05-05 22:18 -38.95091 -68.14803 893 ft 17 kts 270°
2026-05-05 22:18 -38.95045 -68.14948 893 ft 19 kts 315°
2026-05-05 22:19 -38.94945 -68.15076 893 ft 22 kts 314°
2026-05-05 22:19 -38.94900 -68.15207 893 ft 14 kts 271°
2026-05-05 22:19 -38.94900 -68.15340 894 ft 15 kts 269°
2026-05-05 22:19 -38.94900 -68.15477 896 ft 15 kts 270°
2026-05-05 22:20 -38.94898 -68.15628 897 ft 20 kts 271°
2026-05-05 22:20 -38.94897 -68.15838 898 ft 27 kts 270°
2026-05-05 22:20 -38.94894 -68.16105 899 ft 32 kts 271°
2026-05-05 22:20 -38.94884 -68.16406 897 ft 34 kts 271°
2026-05-05 22:21 -38.94882 -68.16723 896 ft 36 kts 269°
2026-05-05 22:21 -38.94883 -68.16930 898 ft 10 kts 269°
2026-05-05 22:21 -38.94894 -68.16931 898 ft 1 kts 105°
2026-05-05 22:21 -38.94895 -68.16910 898 ft 0 kts 92°
2026-05-05 22:22 -38.94896 -68.16871 897 ft 21 kts 91°
2026-05-05 22:22 -38.94897 -68.16344 897 ft 92 kts 90°
2026-05-05 22:22 -38.94900 -68.15290 894 ft 144 kts 90°
2026-05-05 22:22 -38.94920 -68.13936 1347 ft 151 kts 91°
2026-05-05 22:23 -38.94937 -68.12588 2115 ft 150 kts 88°
2026-05-05 22:23 -38.94778 -68.11216 2463 ft 166 kts 66°
2026-05-05 22:23 -38.94225 -68.09821 2749 ft 188 kts 58°
2026-05-05 22:23 -38.93524 -68.08269 3020 ft 213 kts 57°
2026-05-05 22:24 -38.92749 -68.06552 3420 ft 237 kts 58°
2026-05-05 22:24 -38.91896 -68.04614 3942 ft 259 kts 58°
2026-05-05 22:24 -38.91013 -68.02547 4742 ft 269 kts 58°
2026-05-05 22:24 -38.90106 -68.00377 5534 ft 279 kts 59°
2026-05-05 22:25 -38.89191 -67.98154 6330 ft 288 kts 59°
2026-05-05 22:25 -38.88244 -67.95836 7127 ft 295 kts 58°
2026-05-05 22:25 -38.87292 -67.93494 7930 ft 302 kts 57°
2026-05-05 22:25 -38.86300 -67.91060 8694 ft 311 kts 57°
2026-05-05 22:26 -38.85283 -67.88574 8952 ft 315 kts 56°
2026-05-05 22:26 -38.84270 -67.86091 9011 ft 316 kts 56°
2026-05-05 22:26 -38.83247 -67.83584 9006 ft 316 kts 56°
2026-05-05 22:26 -38.82233 -67.81098 9008 ft 316 kts 56°
2026-05-05 22:27 -38.81207 -67.78585 9013 ft 316 kts 56°
2026-05-05 22:27 -38.80198 -67.76117 9017 ft 316 kts 56°
2026-05-05 22:27 -38.79174 -67.73615 9017 ft 316 kts 56°
2026-05-05 22:27 -38.78146 -67.71108 9008 ft 317 kts 56°
2026-05-05 22:28 -38.77128 -67.68626 9024 ft 317 kts 56°
2026-05-05 22:28 -38.76094 -67.66119 9007 ft 316 kts 54°
2026-05-05 22:28 -38.74857 -67.63786 9283 ft 318 kts 47°
2026-05-05 22:28 -38.73568 -67.61501 10156 ft 320 kts 46°
2026-05-05 22:29 -38.72208 -67.59107 10528 ft 343 kts 46°
2026-05-05 22:29 -38.70860 -67.56433 10869 ft 369 kts 56°
2026-05-05 22:29 -38.69676 -67.53506 11550 ft 377 kts 56°
2026-05-05 22:29 -38.68453 -67.50489 12312 ft 383 kts 56°
2026-05-05 22:30 -38.67228 -67.47478 13076 ft 389 kts 56°
2026-05-05 22:30 -38.65964 -67.44385 13844 ft 394 kts 55°
2026-05-05 22:30 -38.64673 -67.41229 14551 ft 399 kts 55°
2026-05-05 22:30 -38.63390 -67.38093 15229 ft 405 kts 55°
2026-05-05 22:31 -38.62067 -67.34868 15899 ft 410 kts 55°
2026-05-05 22:31 -38.60730 -67.31610 16557 ft 416 kts 55°
2026-05-05 22:31 -38.59387 -67.28346 17213 ft 421 kts 55°
2026-05-05 22:31 -38.58003 -67.24991 17865 ft 427 kts 56°
2026-05-05 22:32 -38.56624 -67.21645 18474 ft 432 kts 56°
2026-05-05 22:32 -38.55215 -67.18217 19083 ft 437 kts 56°
2026-05-05 22:32 -38.53782 -67.14735 19727 ft 442 kts 56°
2026-05-05 22:32 -38.52349 -67.11264 20393 ft 446 kts 56°
2026-05-05 22:33 -38.50890 -67.07737 21069 ft 451 kts 56°
2026-05-05 22:33 -38.49430 -67.04212 21728 ft 455 kts 56°
2026-05-05 22:33 -38.47933 -67.00607 22390 ft 460 kts 56°
2026-05-05 22:33 -38.46420 -66.96962 23042 ft 464 kts 56°
2026-05-05 22:34 -38.44914 -66.93332 23652 ft 469 kts 56°
2026-05-05 22:34 -38.43389 -66.89663 24199 ft 472 kts 56°
2026-05-05 22:34 -38.41843 -66.85950 24768 ft 475 kts 56°
2026-05-05 22:34 -38.40282 -66.82206 25322 ft 478 kts 56°
2026-05-05 22:35 -38.38710 -66.78444 25868 ft 482 kts 56°
2026-05-05 22:35 -38.37126 -66.74655 26404 ft 485 kts 56°
2026-05-05 22:35 -38.35548 -66.70889 26930 ft 488 kts 56°
2026-05-05 22:35 -38.33938 -66.67048 27437 ft 491 kts 56°
2026-05-05 22:36 -38.32315 -66.63177 27950 ft 495 kts 56°
2026-05-05 22:36 -38.30698 -66.59326 28449 ft 498 kts 56°
2026-05-05 22:36 -38.29056 -66.55419 28921 ft 501 kts 56°
2026-05-05 22:36 -38.27411 -66.51515 29376 ft 505 kts 56°
2026-05-05 22:37 -38.25742 -66.47565 29823 ft 508 kts 56°
2026-05-05 22:37 -38.24057 -66.43582 30212 ft 511 kts 56°
2026-05-05 22:37 -38.22362 -66.39578 30562 ft 514 kts 56°
2026-05-05 22:37 -38.20679 -66.35607 30935 ft 515 kts 56°
2026-05-05 22:38 -38.18976 -66.31587 31412 ft 514 kts 56°
2026-05-05 22:38 -38.17274 -66.27571 31890 ft 514 kts 56°
2026-05-05 22:38 -38.15595 -66.23623 32358 ft 513 kts 56°
2026-05-05 22:38 -38.13887 -66.19616 32818 ft 513 kts 56°
2026-05-05 22:39 -38.12180 -66.15614 33283 ft 513 kts 56°
2026-05-05 22:39 -38.10481 -66.11632 33762 ft 512 kts 56°
2026-05-05 22:39 -38.08803 -66.07697 34187 ft 512 kts 56°
2026-05-05 22:39 -38.07097 -66.03704 34585 ft 512 kts 56°
2026-05-05 22:40 -38.05391 -65.99720 34986 ft 512 kts 56°
2026-05-05 22:40 -38.03710 -65.95803 35376 ft 512 kts 56°
2026-05-05 22:40 -38.01993 -65.91809 35763 ft 512 kts 56°
2026-05-05 22:40 -38.00297 -65.87868 36122 ft 512 kts 56°
2026-05-05 22:41 -37.98580 -65.83877 36490 ft 512 kts 56°
2026-05-05 22:41 -37.96870 -65.79904 36815 ft 513 kts 56°
2026-05-05 22:41 -37.95166 -65.75952 36922 ft 515 kts 56°
2026-05-05 22:42 -37.91716 -65.67982 36935 ft 517 kts 56°
2026-05-05 22:42 -37.88232 -65.59965 36936 ft 517 kts 56°
2026-05-05 22:43 -37.84776 -65.52016 36938 ft 517 kts 56°
2026-05-05 22:43 -37.81306 -65.44049 36936 ft 517 kts 56°
2026-05-05 22:44 -37.77836 -65.36095 36933 ft 517 kts 56°
2026-05-05 22:44 -37.74932 -65.29452 36941 ft 517 kts 56°
2026-05-05 22:45 -37.70859 -65.20179 36945 ft 517 kts 55°
2026-05-05 22:45 -37.67940 -65.13563 36949 ft 517 kts 55°
2026-05-05 22:46 -37.64445 -65.05648 36956 ft 517 kts 55°
2026-05-05 22:46 -37.60955 -64.97743 36954 ft 517 kts 55°
2026-05-05 22:47 -37.57462 -64.89855 36959 ft 516 kts 55°
2026-05-05 22:47 -37.53932 -64.81926 36953 ft 516 kts 55°
2026-05-05 22:48 -37.50432 -64.74061 36953 ft 516 kts 55°
2026-05-05 22:48 -37.46914 -64.66164 36954 ft 516 kts 55°
2026-05-05 22:49 -37.43411 -64.58340 36957 ft 516 kts 55°
2026-05-05 22:49 -37.39866 -64.50444 36955 ft 516 kts 55°
2026-05-05 22:50 -37.36344 -64.42610 36960 ft 516 kts 55°
2026-05-05 22:50 -37.32808 -64.34777 36958 ft 515 kts 55°
2026-05-05 22:51 -37.29255 -64.26985 36957 ft 515 kts 55°
2026-05-05 22:51 -37.25671 -64.19173 36960 ft 515 kts 55°
2026-05-05 22:52 -37.22097 -64.11409 36957 ft 515 kts 54°
2026-05-05 22:52 -37.18510 -64.03618 36965 ft 515 kts 55°
2026-05-05 22:53 -37.14935 -63.95853 36961 ft 515 kts 55°
2026-05-05 22:53 -37.11358 -63.88117 36967 ft 514 kts 54°
2026-05-05 22:54 -37.07766 -63.80369 36960 ft 514 kts 54°
2026-05-05 22:54 -37.04154 -63.72604 36969 ft 514 kts 54°
2026-05-05 22:55 -37.00569 -63.64898 36968 ft 514 kts 54°
2026-05-05 22:55 -36.96954 -63.57159 36966 ft 513 kts 54°
2026-05-05 22:56 -36.93358 -63.49471 36970 ft 513 kts 54°
2026-05-05 22:56 -36.89769 -63.41803 36971 ft 513 kts 54°
2026-05-05 22:57 -36.86153 -63.34102 36968 ft 512 kts 54°
2026-05-05 22:57 -36.82555 -63.26467 36969 ft 512 kts 54°
2026-05-05 22:58 -36.78932 -63.18790 36965 ft 511 kts 54°
2026-05-05 22:58 -36.75336 -63.11188 36961 ft 511 kts 54°
2026-05-05 22:59 -36.71713 -63.03542 36966 ft 510 kts 54°
2026-05-05 22:59 -36.68102 -62.95952 36962 ft 510 kts 54°
2026-05-05 23:00 -36.62658 -62.84532 36972 ft 510 kts 54°
2026-05-05 23:00 -36.59043 -62.76986 36966 ft 510 kts 54°
2026-05-05 23:01 -36.55400 -62.69396 36969 ft 509 kts 54°
2026-05-05 23:01 -36.51784 -62.61861 36973 ft 509 kts 54°
2026-05-05 23:02 -36.48149 -62.54301 36972 ft 508 kts 54°
2026-05-05 23:02 -36.44514 -62.46762 36961 ft 507 kts 54°
2026-05-05 23:03 -36.40906 -62.39296 36964 ft 507 kts 54°
2026-05-05 23:03 -36.37260 -62.31775 36972 ft 506 kts 54°
2026-05-05 23:04 -36.33625 -62.24298 36967 ft 506 kts 54°
2026-05-05 23:04 -36.29996 -62.16846 36964 ft 505 kts 54°
2026-05-05 23:05 -36.26376 -62.09413 36961 ft 505 kts 54°
2026-05-05 23:05 -36.22730 -62.01957 36958 ft 505 kts 54°
2026-05-05 23:06 -36.19105 -61.94549 36957 ft 505 kts 54°
2026-05-05 23:06 -36.15448 -61.87094 36961 ft 505 kts 54°
2026-05-05 23:07 -36.11796 -61.79689 36962 ft 505 kts 54°
2026-05-05 23:07 -36.08160 -61.72300 36966 ft 505 kts 54°
2026-05-05 23:08 -36.04494 -61.64869 36968 ft 505 kts 54°
2026-05-05 23:08 -36.00830 -61.57444 36963 ft 505 kts 54°
2026-05-05 23:09 -35.97184 -61.50071 36961 ft 505 kts 54°
2026-05-05 23:09 -35.93528 -61.42685 36965 ft 505 kts 54°
2026-05-05 23:10 -35.89843 -61.35278 36963 ft 505 kts 54°
2026-05-05 23:10 -35.86152 -61.27868 36967 ft 506 kts 54°
2026-05-05 23:11 -35.82504 -61.20486 36962 ft 506 kts 54°
2026-05-05 23:11 -35.78865 -61.13091 36963 ft 506 kts 54°
2026-05-05 23:12 -35.75181 -61.05654 36964 ft 506 kts 54°
2026-05-05 23:12 -35.71514 -60.98302 36961 ft 506 kts 54°
2026-05-05 23:13 -35.67833 -60.90934 36961 ft 506 kts 54°
2026-05-05 23:13 -35.64118 -60.83515 36962 ft 507 kts 54°
2026-05-05 23:14 -35.60444 -60.76150 36960 ft 507 kts 54°
2026-05-05 23:14 -35.56761 -60.68794 36955 ft 507 kts 54°
2026-05-05 23:15 -35.53036 -60.61399 36955 ft 507 kts 54°
2026-05-05 23:15 -35.49332 -60.54050 36970 ft 508 kts 54°
2026-05-05 23:16 -35.45624 -60.46698 36967 ft 508 kts 54°
2026-05-05 23:16 -35.41895 -60.39318 36913 ft 508 kts 54°
2026-05-05 23:17 -35.40047 -60.35669 36650 ft 507 kts 54°
2026-05-05 23:17 -35.38172 -60.31982 36382 ft 507 kts 54°
2026-05-05 23:17 -35.36318 -60.28343 36133 ft 507 kts 54°
2026-05-05 23:17 -35.34444 -60.24668 35887 ft 507 kts 54°
2026-05-05 23:18 -35.32570 -60.20995 35627 ft 507 kts 54°
2026-05-05 23:18 -35.30718 -60.17362 35329 ft 507 kts 54°
2026-05-05 23:18 -35.28832 -60.13659 34406 ft 513 kts 54°
2026-05-05 23:18 -35.26946 -60.09961 33656 ft 514 kts 54°
2026-05-05 23:19 -35.25054 -60.06248 33097 ft 509 kts 54°
2026-05-05 23:19 -35.23199 -60.02616 32489 ft 506 kts 54°
2026-05-05 23:19 -35.21327 -59.98955 31882 ft 504 kts 54°
2026-05-05 23:19 -35.19487 -59.95360 31283 ft 501 kts 54°
2026-05-05 23:20 -35.17630 -59.91739 30674 ft 499 kts 54°
2026-05-05 23:20 -35.15783 -59.88147 30066 ft 497 kts 54°
2026-05-05 23:20 -35.13955 -59.84602 29406 ft 494 kts 54°
2026-05-05 23:20 -35.12129 -59.81060 28828 ft 489 kts 54°
2026-05-05 23:21 -35.10315 -59.77540 28234 ft 485 kts 54°
2026-05-05 23:21 -35.08538 -59.74093 27672 ft 481 kts 54°
2026-05-05 23:21 -35.06751 -59.70631 27105 ft 477 kts 54°
2026-05-05 23:21 -35.05004 -59.67252 26575 ft 473 kts 54°
2026-05-05 23:22 -35.03337 -59.63766 26038 ft 472 kts 62°
2026-05-05 23:22 -35.02177 -59.60077 25594 ft 469 kts 73°
2026-05-05 23:22 -35.01440 -59.56199 25161 ft 465 kts 77°
2026-05-05 23:22 -35.00749 -59.52338 24489 ft 467 kts 77°
2026-05-05 23:23 -35.00055 -59.48496 23940 ft 466 kts 76°
2026-05-05 23:23 -34.99355 -59.44644 23438 ft 463 kts 76°
2026-05-05 23:23 -34.98658 -59.40817 22896 ft 459 kts 76°
2026-05-05 23:23 -34.97971 -59.37053 22242 ft 459 kts 77°
2026-05-05 23:24 -34.97276 -59.33248 21693 ft 456 kts 77°
2026-05-05 23:24 -34.96588 -59.29482 21109 ft 453 kts 77°
2026-05-05 23:24 -34.95917 -59.25804 20291 ft 444 kts 77°
2026-05-05 23:24 -34.95250 -59.22153 19440 ft 437 kts 77°
2026-05-05 23:25 -34.94591 -59.18551 18594 ft 432 kts 77°
2026-05-05 23:25 -34.93933 -59.14965 18108 ft 430 kts 77°
2026-05-05 23:25 -34.93288 -59.11468 17591 ft 425 kts 77°
2026-05-05 23:25 -34.92636 -59.07942 17075 ft 421 kts 77°
2026-05-05 23:26 -34.91999 -59.04521 16477 ft 414 kts 76°
2026-05-05 23:26 -34.91000 -59.01280 15711 ft 401 kts 60°
2026-05-05 23:26 -34.89465 -58.98516 15115 ft 388 kts 46°
2026-05-05 23:26 -34.87508 -58.96316 14429 ft 378 kts 33°
2026-05-05 23:27 -34.85235 -58.94753 13845 ft 372 kts 21°
2026-05-05 23:27 -34.82912 -58.93499 13309 ft 369 kts 21°
2026-05-05 23:27 -34.80568 -58.92230 12747 ft 366 kts 22°
2026-05-05 23:27 -34.78247 -58.90967 12207 ft 363 kts 22°
2026-05-05 23:28 -34.75967 -58.89725 11678 ft 360 kts 22°
2026-05-05 23:28 -34.73671 -58.88474 11150 ft 358 kts 23°
2026-05-05 23:28 -34.71420 -58.87252 10644 ft 355 kts 23°
2026-05-05 23:28 -34.69160 -58.86028 10139 ft 353 kts 23°
2026-05-05 23:29 -34.66975 -58.84842 9942 ft 330 kts 23°
2026-05-05 23:29 -34.64949 -58.83744 9758 ft 308 kts 23°
2026-05-05 23:29 -34.63043 -58.82714 9283 ft 300 kts 23°
2026-05-05 23:29 -34.61132 -58.81685 8975 ft 297 kts 22°
2026-05-05 23:30 -34.59264 -58.80679 8655 ft 295 kts 22°
2026-05-05 23:30 -34.58022 -58.80009 8427 ft 294 kts 22°
2026-05-05 23:30 -34.55445 -58.78993 7973 ft 286 kts
2026-05-05 23:30 -34.53504 -58.78716 7401 ft 284 kts
2026-05-05 23:31 -34.51534 -58.78486 7113 ft 282 kts
2026-05-05 23:31 -34.49581 -58.78255 6844 ft 279 kts
2026-05-05 23:31 -34.47673 -58.78027 6542 ft 277 kts
2026-05-05 23:31 -34.45753 -58.77796 6230 ft 276 kts
2026-05-05 23:32 -34.43838 -58.77569 5903 ft 274 kts
2026-05-05 23:32 -34.41943 -58.77344 5592 ft 272 kts
2026-05-05 23:32 -34.40066 -58.77046 5291 ft 272 kts 13°
2026-05-05 23:32 -34.38464 -58.75918 5030 ft 271 kts 48°
2026-05-05 23:33 -34.37734 -58.73950 4980 ft 249 kts 86°
2026-05-05 23:33 -34.37885 -58.72588 4999 ft 252 kts 112°
2026-05-05 23:33 -34.39262 -58.70377 5001 ft 247 kts 133°
2026-05-05 23:33 -34.40066 -58.69398 4995 ft 246 kts 136°
2026-05-05 23:34 -34.41198 -58.67837 4822 ft 243 kts 127°
2026-05-05 23:34 -34.42144 -58.66204 4533 ft 233 kts 124°
2026-05-05 23:34 -34.43033 -58.64601 4241 ft 224 kts 124°
2026-05-05 23:34 -34.43892 -58.63064 3944 ft 216 kts 124°
2026-05-05 23:35 -34.44712 -58.61604 3715 ft 206 kts 124°
2026-05-05 23:35 -34.45516 -58.60172 3414 ft 203 kts 123°
2026-05-05 23:35 -34.46295 -58.58784 3151 ft 193 kts 123°
2026-05-05 23:35 -34.47037 -58.57461 2905 ft 187 kts 123°
2026-05-05 23:36 -34.47756 -58.56178 2670 ft 184 kts 123°
2026-05-05 23:36 -34.48474 -58.54897 2423 ft 181 kts 123°
2026-05-05 23:36 -34.49172 -58.53651 2184 ft 176 kts 123°
2026-05-05 23:36 -34.49839 -58.52461 1965 ft 165 kts 122°
2026-05-05 23:37 -34.50456 -58.51361 1750 ft 152 kts 122°
2026-05-05 23:37 -34.51030 -58.50334 1553 ft 142 kts 123°
2026-05-05 23:37 -34.51579 -58.49353 1365 ft 139 kts 122°
2026-05-05 23:37 -34.52111 -58.48401 1215 ft 137 kts 123°
2026-05-05 23:38 -34.52638 -58.47460 1031 ft 133 kts 122°
2026-05-05 23:38 -34.53157 -58.46530 837 ft 132 kts 122°
2026-05-05 23:38 -34.53666 -58.45622 677 ft 131 kts 122°
2026-05-05 23:38 -34.54183 -58.44702 471 ft 130 kts 123°
2026-05-05 23:39 -34.54683 -58.43808 339 ft 130 kts 123°
2026-05-05 23:39 -34.55200 -58.42884 122 ft 131 kts 123°
2026-05-05 23:39 -34.55536 -58.42276 38 ft 128 kts 122°